DW9852 Weather Reports


Display with metric or nautical units.
time (UTC)temp
F
wind
direction
speed
MPH
gust
MPH
rain 1hr
in
rain 24hr
in
rain mn
in
humidity
%
barometer
mb
20260505213044 88 0 2.0 6.0 0.00 0.00 0.00 67 1008.1
20260505212540 88 91 1.0 6.0 0.00 0.00 0.00 66 1008.1
20260505212039 87 231 3.0 6.0 0.00 0.00 0.00 66 1008.2
20260505211559 87 233 2.0 6.0 0.00 0.00 0.00 66 1008.3
20260505211040 87 234 0.0 9.0 0.00 0.00 0.00 68 1008.2
20260505210538 87 238 0.0 9.0 0.00 0.00 0.00 67 1008.5
20260505210056 87 208 2.0 9.0 0.00 0.00 0.00 65 1008.5
20260505205540 88 218 1.0 7.0 0.00 0.00 0.00 66 1008.6
20260505205039 87 0 1.0 7.0 0.00 0.00 0.00 67 1008.4
20260505204549 87 212 1.0 7.0 0.00 0.00 0.00 67 1008.5
20260505204039 87 0 1.0 6.0 0.00 0.00 0.00 68 1008.7
20260505203539 86 0 0.0 5.0 0.00 0.00 0.00 68 1008.7
20260505203048 86 0 1.0 5.0 0.00 0.00 0.00 68 1009.0
20260505202537 87 193 1.0 5.0 0.00 0.00 0.00 69 1009.2
20260505202039 86 270 0.0 4.0 0.00 0.00 0.00 70 1009.2
20260505201548 85 269 1.0 5.0 0.00 0.00 0.00 69 1009.2
20260505201042 85 0 0.0 5.0 0.00 0.00 0.00 69 1009.4
20260505200539 85 198 1.0 4.0 0.00 0.00 0.00 69 1009.3
20260505200043 85 0 0.0 4.0 0.00 0.00 0.00 72 1009.4
20260505195544 84 224 0.0 3.0 0.00 0.00 0.00 71 1009.6
20260505195042 85 266 0.0 7.0 0.00 0.00 0.00 70 1009.6
20260505194549 85 0 0.0 7.0 0.00 0.00 0.00 71 1009.6
20260505194040 85 226 1.0 6.0 0.00 0.00 0.00 71 1009.6
20260505193539 84 101 0.0 6.0 0.00 0.00 0.00 73 1009.6
20260505193100 84 0 1.0 6.0 0.00 0.00 0.00 73 1009.8
20260505192541 83 22 0.0 5.0 0.00 0.00 0.00 74 1009.9
20260505192039 83 224 0.0 5.0 0.00 0.00 0.00 74 1010.0
20260505191642 82 200 1.0 5.0 0.00 0.00 0.00 76 1009.9
20260505191042 82 0 1.0 8.0 0.00 0.00 0.00 76 1010.0
20260505190543 82 184 3.0 8.0 0.00 0.00 0.00 76 1010.1
20260505190048 82 0 0.0 5.0 0.00 0.00 0.00 76 1010.2
20260505185539 82 0 0.0 6.0 0.00 0.00 0.00 76 1010.4
20260505185039 81 181 3.0 6.0 0.00 0.00 0.00 76 1010.4
20260505184548 82 178 1.0 5.0 0.00 0.00 0.00 76 1010.4
20260505184040 82 119 2.0 5.0 0.00 0.00 0.00 75 1010.5
20260505183541 82 0 0.0 1.0 0.00 0.00 0.00 76 1010.6
20260505183050 81 0 0.0 1.0 0.00 0.00 0.00 77 1010.4
20260505182540 82 251 0.0 6.0 0.00 0.00 0.00 76 1010.5
20260505182039 81 0 0.0 6.0 0.00 0.00 0.00 77 1010.7
20260505181556 81 0 0.0 5.0 0.00 0.00 0.00 78 1010.6
20260505181038 80 0 0.0 5.0 0.00 0.00 0.00 79 1010.7
20260505180538 80 0 0.0 7.0 0.00 0.00 0.00 79 1010.8
20260505180049 79 202 1.0 7.0 0.00 0.00 0.00 80 1010.8
20260505175539 79 0 0.0 4.0 0.00 0.00 0.00 81 1010.9
20260505175040 79 265 0.0 1.0 0.00 0.00 0.00 81 1010.8
20260505174551 78 260 0.0 1.0 0.00 0.00 0.00 81 1010.9
20260505174040 78 0 0.0 4.0 0.00 0.00 0.00 81 1011.0
20260505173538 78 0 0.0 8.0 0.00 0.00 0.00 81 1010.9
20260505173051 78 285 1.0 8.0 0.00 0.00 0.00 82 1010.9
20260505172539 78 225 0.0 2.0 0.00 0.00 0.00 82 1011.0
20260505172039 78 239 0.0 2.0 0.00 0.00 0.00 83 1011.1
20260505171550 77 0 0.0 2.0 0.00 0.00 0.00 83 1011.0
20260505171037 77 0 0.0 1.0 0.00 0.00 0.00 84 1010.9
20260505170540 76 0 0.0 2.0 0.00 0.00 0.00 85 1011.1
20260505170052 76 0 0.0 2.0 0.00 0.00 0.00 85 1011.0
20260505165543 76 0 0.0 7.0 0.00 0.00 0.00 85 1011.0
20260505165039 76 0 1.0 7.0 0.00 0.00 0.00 85 1010.9
20260505164551 76 0 0.0 4.0 0.00 0.00 0.00 85 1011.0
20260505164038 76 264 0.0 5.0 0.00 0.00 0.00 86 1011.1
20260505163539 75 0 0.0 5.0 0.00 0.00 0.00 86 1010.9
20260505163047 75 0 0.0 5.0 0.00 0.00 0.00 86 1010.9
20260505162539 75 0 0.0 3.0 0.00 0.00 0.00 87 1011.0
20260505162039 75 0 0.0 3.0 0.00 0.00 0.00 87 1011.1
20260505161548 74 0 0.0 3.0 0.00 0.00 0.00 88 1011.1
20260505161037 74 0 0.0 3.0 0.00 0.00 0.00 88 1011.2
20260505160540 74 0 0.0 1.0 0.00 0.00 0.00 89 1011.2
20260505153052 73 0 0.0 4.0 0.00 0.00 0.00 90 1011.1
20260505152539 73 274 0.0 4.0 0.00 0.00 0.00 90 1011.1
20260505152040 73 0 0.0 4.0 0.00 0.00 0.00 90 1010.9
20260505151555 73 0 0.0 4.0 0.00 0.00 0.00 90 1011.0
20260505151040 73 0 1.0 7.0 0.00 0.00 0.00 90 1011.0
20260505150539 72 0 1.0 7.0 0.00 0.00 0.00 90 1011.0
20260505150106 72 0 1.0 4.0 0.00 0.00 0.00 91 1011.0
20260505140539 0 0.0 0.0 0.00 0.00 0.00 1011.1
20260505125041 0 0.0 0.0 0.00 0.00 0.00 1011.0
20260505124553 0 0.0 0.0 0.00 0.00 0.00 1010.7
20260505124041 0 0.0 0.0 0.00 0.00 0.00 1010.8
20260505123540 0 0.0 0.0 0.00 0.00 0.00 1010.5
20260505123054 0 0.0 0.0 0.00 0.00 0.00 1010.5
20260505122540 0 0.0 0.0 0.00 0.00 0.00 1010.6
20260505122040 0 0.0 0.0 0.00 0.00 0.00 1010.4
20260505121545 0 0.0 0.0 0.00 0.00 0.00 1010.3
20260505121039 0 0.0 0.0 0.00 0.00 0.00 1010.3
20260505120539 0 0.0 0.0 0.00 0.00 0.00 1010.3
20260505120057 0 0.0 0.0 0.00 0.00 0.00 1010.1
20260505115540 0 0.0 0.0 0.00 0.00 0.00 1010.0
20260505115040 0 0.0 0.0 0.00 0.00 0.00 1010.1
20260505114551 0 0.0 0.0 0.00 0.00 0.00 1010.0
20260505114041 0 0.0 0.0 0.00 0.00 0.00 1010.0
20260505113539 0 0.0 0.0 0.00 0.00 0.00 1009.9
20260505113044 0 0.0 0.0 0.00 0.00 0.00 1009.9
20260505112540 0 0.0 0.0 0.00 0.00 0.00 1009.9
20260505112039 0 0.0 0.0 0.00 0.00 0.00 1009.9
20260505111549 0 0.0 0.0 0.00 0.00 0.00 1009.9
20260505111040 0 0.0 0.0 0.00 0.00 0.00 1009.9
20260505110540 0 0.0 0.0 0.00 0.00 0.00 1009.9
20260505102040 0 0.0 0.0 0.00 0.00 0.00 1010.0
20260505101549 0 0.0 0.0 0.00 0.00 0.00 1009.9
20260505101041 0 0.0 0.0 0.00 0.00 0.00 1010.1
20260505100542 0 0.0 0.0 0.00 0.00 0.00 1010.0
20260505100047 0 0.0 0.0 0.00 0.00 0.00 1010.0
20260505095542 0 0.0 0.0 0.00 0.00 0.00 1010.0
20260505095038 0 0.0 0.0 0.00 0.00 0.00 1010.1
20260505094601 0 0.0 0.0 0.00 0.00 0.00 1010.2
20260505094037 0 0.0 0.0 0.00 0.00 0.00 1010.2
20260505093542 0 0.0 0.0 0.00 0.00 0.00 1010.3
20260505093053 0 1.0 6.0 0.00 0.00 0.00 93 1010.3
20260505092541 0 212 2.0 6.0 0.00 0.00 0.00 93 1010.3
20260505092037 68 236 1.0 5.0 0.00 0.00 0.00 93 1010.3
20260505091541 69 0 1.0 3.0 0.00 0.00 0.00 93 1010.2
20260505091038 69 245 0.0 2.0 0.00 0.00 0.00 93 1010.3
20260505090538 69 224 0.0 2.0 0.00 0.00 0.00 93 1010.3
20260505090058 69 231 0.0 2.0 0.00 0.00 0.00 93 1010.3
20260505085539 69 0 0.0 8.0 0.00 0.00 0.00 93 1010.3
20260505085040 69 0 0.0 8.0 0.00 0.00 0.00 93 1010.4
20260505084554 69 243 1.0 7.0 0.00 0.00 0.00 93 1010.3
20260505084039 69 0 3.0 9.0 0.00 0.00 0.00 92 1010.2
20260505083539 69 0 2.0 9.0 0.00 0.00 0.00 92 1010.4
20260505083058 69 255 0.0 6.0 0.00 0.00 0.00 92 1010.5
20260505082539 69 231 1.0 6.0 0.00 0.00 0.00 92 1010.7
20260505082039 69 251 1.0 8.0 0.00 0.00 0.00 92 1010.9
20260505081555 69 0 0.0 8.0 0.00 0.00 0.00 92 1011.0
20260505081037 69 143 1.0 8.0 0.00 0.00 0.00 92 1010.9
20260505080539 69 0 3.0 7.0 0.00 0.00 0.00 92 1010.8
20260505080051 69 0 1.0 6.0 0.00 0.00 0.00 92 1010.8
20260505075540 69 244 2.0 7.0 0.00 0.00 0.00 92 1010.9
20260505075039 69 208 0.0 7.0 0.00 0.00 0.00 92 1011.1
20260505074548 69 211 1.0 6.0 0.00 0.00 0.00 92 1011.0
20260505074040 69 0 2.0 5.0 0.00 0.00 0.00 91 1011.2
20260505073539 69 0 0.0 7.0 0.00 0.00 0.00 91 1011.2
20260505073048 69 189 1.0 7.0 0.00 0.00 0.00 91 1011.3
20260505072540 69 231 1.0 6.0 0.00 0.00 0.00 91 1011.3
20260505072039 69 0 2.0 6.0 0.00 0.00 0.00 91 1011.4
20260505071552 69 202 1.0 7.0 0.00 0.00 0.00 91 1011.5
20260505071038 70 177 2.0 9.0 0.00 0.00 0.00 91 1011.7
20260505070539 69 222 2.0 9.0 0.00 0.00 0.00 91 1011.7
20260505070054 70 216 0.0 6.0 0.00 0.00 0.00 91 1011.6
20260505065537 69 194 2.0 6.0 0.00 0.00 0.00 91 1011.7
20260505065038 69 0 1.0 6.0 0.00 0.00 0.00 91 1011.8
20260505064550 69 203 1.0 7.0 0.00 0.00 0.00 91 1011.9
20260505064038 69 229 1.0 7.0 0.00 0.00 0.00 91 1012.0
20260505063540 69 204 0.0 7.0 0.00 0.00 0.00 91 1012.0
20260505063049 69 0 0.0 7.0 0.00 0.00 0.00 90 1011.9
20260505062540 70 204 0.0 5.0 0.00 0.00 0.00 90 1012.0
20260505062042 70 188 0.0 5.0 0.00 0.00 0.00 90 1012.0
20260505061551 70 209 1.0 5.0 0.00 0.00 0.00 90 1012.0
20260505061041 70 223 1.0 8.0 0.00 0.00 0.00 90 1011.9
20260505060540 70 215 2.0 8.0 0.00 0.00 0.00 89 1012.1
20260505060052 70 158 2.0 8.0 0.00 0.00 0.00 89 1012.2
20260505055541 70 0 1.0 6.0 0.00 0.00 0.00 89 1012.2
20260505055041 70 264 1.0 7.0 0.00 0.00 0.00 89 1012.1
20260505054555 71 72 0.0 10.0 0.00 0.00 0.00 88 1012.2
20260505054040 71 251 3.0 10.0 0.00 0.00 0.00 88 1012.2
20260505053539 70 0 3.0 12.0 0.00 0.00 0.00 88 1012.2
20260505053049 71 204 3.0 12.0 0.00 0.00 0.00 88 1012.3
20260505052540 71 132 1.0 11.0 0.00 0.00 0.00 88 1012.2
20260505052040 71 208 4.0 11.0 0.00 0.00 0.00 88 1012.2
20260505051545 71 213 2.0 10.0 0.00 0.00 0.00 88 1012.0
20260505051038 71 176 1.0 8.0 0.00 0.00 0.00 87 1012.1
20260505050542 71 238 4.0 8.0 0.00 0.00 0.00 87 1012.2
20260505041549 73 39 3.0 11.0 0.00 0.00 0.00 85 1012.1
20260505041038 73 208 2.0 11.0 0.00 0.00 0.00 84 1012.0
20260505040538 73 222 1.0 9.0 0.00 0.00 0.00 84 1012.2
20260505040057 73 156 2.0 9.0 0.00 0.00 0.00 84 1012.2
20260505035541 73 204 2.0 10.0 0.00 0.00 0.00 83 1012.1
20260505035038 74 0 1.0 10.0 0.00 0.00 0.00 83 1012.0
20260505034552 74 94 1.0 10.0 0.00 0.00 0.00 83 1011.9
20260505034041 74 184 0.0 7.0 0.00 0.00 0.00 82 1011.9
20260505033540 74 240 1.0 7.0 0.00 0.00 0.00 81 1012.0
20260505033129 74 0 0.0 6.0 0.00 0.00 0.00 81 1011.9
20260505032542 74 0 1.0 6.0 0.00 0.00 0.00 80 1012.0
20260505032038 74 39 0.0 6.0 0.00 0.00 0.00 80 1011.9
20260505031557 75 128 0.0 6.0 0.00 0.00 0.00 79 1011.9
20260505031040 75 184 0.0 6.0 0.00 0.00 0.00 78 1011.9
20260505030539 75 209 0.0 7.0 0.00 0.00 0.00 78 1012.0
20260505030049 75 0 0.0 7.0 0.00 0.00 0.00 78 1012.0
20260505025541 75 56 0.0 3.0 0.00 0.00 0.00 77 1012.0
20260505025038 76 0 0.0 5.0 0.00 0.00 0.00 76 1012.0
20260505024550 75 240 0.0 5.0 0.00 0.00 0.00 77 1012.0
20260505024043 75 0 0.0 5.0 0.00 0.00 0.00 76 1012.0
20260505023540 76 0 0.0 5.0 0.00 0.00 0.00 76 1011.9
20260505023046 76 205 0.0 4.0 0.00 0.00 0.00 75 1011.9
20260505022538 76 0 0.0 4.0 0.00 0.00 0.00 75 1011.8
20260505022041 76 0 0.0 3.0 0.00 0.00 0.00 74 1011.8
20260505021549 76 0 0.0 1.0 0.00 0.00 0.00 74 1011.9
20260505021040 77 0 0.0 2.0 0.00 0.00 0.00 73 1011.9
20260505020540 77 0 0.0 2.0 0.00 0.00 0.00 73 1011.6
20260505020051 77 0 0.0 2.0 0.00 0.00 0.00 73 1011.4
20260505015541 77 198 0.0 6.0 0.00 0.00 0.00 73 1011.2
20260505015041 77 198 0.0 6.0 0.00 0.00 0.00 72 1011.3
20260505014602 77 217 0.0 3.0 0.00 0.00 0.00 72 1011.4
20260505014044 77 212 0.0 3.0 0.00 0.00 0.00 72 1011.4
20260505013541 77 0 0.0 2.0 0.00 0.00 0.00 72 1011.3
20260505013045 77 0 0.0 4.0 0.00 0.00 0.00 71 1011.4
20260505012541 78 0 1.0 5.0 0.00 0.00 0.00 70 1011.4
20260505012043 78 231 0.0 5.0 0.00 0.00 0.00 70 1011.2
20260505011549 78 0 0.0 5.0 0.00 0.00 0.00 69 1011.2
20260505011041 79 0 0.0 4.0 0.00 0.00 0.00 68 1011.2
20260505010543 79 195 0.0 4.0 0.00 0.00 0.00 68 1011.2
20260505010047 79 0 1.0 4.0 0.00 0.00 0.00 67 1011.3
20260505005539 79 0 0.0 7.0 0.00 0.00 0.00 67 1011.3
20260505005039 80 0 3.0 8.0 0.00 0.00 0.00 66 1011.2
20260505004554 80 0 1.0 10.0 0.00 0.00 0.00 66 1011.1
20260505004038 80 0 1.0 10.0 0.00 0.00 0.00 65 1011.0
20260505003538 80 208 1.0 10.0 0.00 0.00 0.00 65 1011.0
20260505003046 80 207 3.0 10.0 0.00 0.00 0.00 65 1010.8
20260505002542 80 209 3.0 7.0 0.00 0.00 0.00 64 1010.9
20260505002039 81 175 0.0 10.0 0.00 0.00 0.00 65 1011.1
20260505001550 81 66 0.0 10.0 0.00 0.00 0.00 65 1011.0
20260505001038 81 209 3.0 7.0 0.00 0.00 0.00 65 1011.1
20260505000538 81 206 2.0 10.0 0.00 0.00 0.00 65 1011.1
20260505000055 81 172 4.0 10.0 0.00 0.00 0.00 64 1011.3
20260504235542 81 221 1.0 10.0 0.00 0.00 0.00 64 1011.1
20260504235043 82 175 2.0 10.0 0.00 0.00 0.00 63 1011.3
20260504234548 82 165 2.0 9.0 0.00 0.00 0.00 63 1011.4
20260504234039 82 214 2.0 10.0 0.00 0.00 0.00 64 1011.5
20260504233539 81 262 1.0 13.0 0.00 0.00 0.00 64 1011.4
20260504233049 81 224 4.0 13.0 0.00 0.00 0.00 64 1011.5
20260504232539 81 226 6.0 13.0 0.00 0.00 0.00 64 1011.5
20260504232042 81 207 2.0 7.0 0.00 0.00 0.00 64 1011.6
20260504231545 82 197 1.0 11.0 0.00 0.00 0.00 63 1011.7
20260504231039 82 259 2.0 11.0 0.00 0.00 0.00 63 1011.8
20260504230542 82 273 2.0 9.0 0.00 0.00 0.00 63 1011.8
20260504230051 82 203 2.0 9.0 0.00 0.00 0.00 63 1011.9
20260504225540 82 206 1.0 6.0 0.00 0.00 0.00 63 1011.9
20260504225042 81 255 1.0 8.0 0.00 0.00 0.00 64 1012.0
20260504224552 81 0 2.0 9.0 0.00 0.00 0.00 65 1012.3
20260504224039 81 230 2.0 10.0 0.00 0.00 0.00 64 1012.1
20260504223540 81 203 3.0 10.0 0.00 0.00 0.00 64 1012.2
20260504223047 81 231 2.0 12.0 0.00 0.00 0.00 64 1012.4
20260504222545 81 263 3.0 12.0 0.00 0.00 0.00 63 1012.3
20260504222040 81 236 1.0 8.0 0.00 0.00 0.00 64 1012.2
20260504221548 81 221 3.0 9.0 0.00 0.00 0.00 63 1012.2
20260504221040 81 192 4.0 9.0 0.00 0.00 0.00 63 1012.3
20260504220540 81 214 0.0 9.0 0.00 0.00 0.00 64 1012.4
20260504220052 81 258 4.0 9.0 0.00 0.00 0.00 63 1012.3
20260504215540 81 221 3.0 11.0 0.00 0.00 0.00 63 1012.3
20260504215040 81 164 3.0 11.0 0.00 0.00 0.00 63 1012.3
20260504214557 82 120 2.0 9.0 0.00 0.00 0.00 62 1012.3
20260504214040 82 209 2.0 10.0 0.00 0.00 0.00 62 1012.4
20260504213540 82 224 3.0 12.0 0.00 0.00 0.00 63 1012.4